When you browse on this site, cookies collect data to enhance your experience and personalize the content and advertising you see.
Visit our Privacy Policy to learn more. By continuing to use the site, you agree to this use of cookies and data.
  • In Switzerland
  • List of Countries
  • For 7 days
  • Water Temperature
  • Weather Map
  • Weather Widgets
  • user-avatar
    Login

    Hourly Weather Satif

    Today, 3 June, Wednesday

    Time Temperature Precipitation Wind Pressure Humidity
    00:00 +20°C° 0 mm 1 mps 671 mmHg 53%
    01:00 +19°C° 0 mm 1 mps 670 mmHg 55%
    02:00 +19°C° 0 mm 1 mps 670 mmHg 56%
    03:00 +16°C° 0 mm 0 mps 669 mmHg 58%
    04:00 +17°C° 0 mm 0 mps 670 mmHg 55%
    05:00 +18°C° 0 mm 0 mps 670 mmHg 51%
    06:00 +19°C° 0 mm 0 mps 670 mmHg 48%
    07:00 +23°C° 0 mm 1 mps 671 mmHg 45%
    08:00 +24°C° 0 mm 1 mps 671 mmHg 42%
    09:00 +25°C° 0 mm 1 mps 672 mmHg 38%
    10:00 +26°C° 0 mm 2 mps 672 mmHg 35%
    11:00 +27°C° 0 mm 2 mps 671 mmHg 31%
    12:00 +28°C° 0 mm 3 mps 671 mmHg 27%
    13:00 +29°C° 0 mm 3 mps 671 mmHg 26%
    14:00 +29°C° 0 mm 3 mps 671 mmHg 26%
    15:00 +29°C° 0 mm 4 mps 670 mmHg 25%
    16:00 +28°C° 0 mm 3 mps 670 mmHg 29%
    17:00 +28°C° 0 mm 3 mps 670 mmHg 32%
    18:00 +27°C° 0 mm 2 mps 669 mmHg 36%
    19:00 +26°C° 0 mm 2 mps 669 mmHg 42%
    20:00 +24°C° 0 mm 1 mps 669 mmHg 48%
    21:00 +22°C° 0 mm 1 mps 669 mmHg 54%
    22:00 +22°C° 0 mm 1 mps 669 mmHg 54%
    23:00 +22°C° 0 mm 1 mps 668 mmHg 54%

    Tomorrow, 4 June, Thursday

    Time Temperature Precipitation Wind Pressure Humidity
    00:00 +21°C° 0 mm 1 mps 668 mmHg 54%
    01:00 +20°C° 0 mm 2 mps 668 mmHg 55%
    02:00 +20°C° 0 mm 2 mps 667 mmHg 55%
    03:00 +20°C° 0 mm 2 mps 667 mmHg 56%
    04:00 +20°C° 0 mm 3 mps 667 mmHg 54%
    05:00 +21°C° 0 mm 3 mps 668 mmHg 52%
    06:00 +22°C° 0 mm 3 mps 668 mmHg 51%
    07:00 +23°C° 0 mm 4 mps 668 mmHg 43%
    08:00 +26°C° 0 mm 6 mps 669 mmHg 36%
    09:00 +28°C° 0 mm 7 mps 669 mmHg 28%
    10:00 +28°C° 0 mm 7 mps 669 mmHg 28%
    11:00 +29°C° 0 mm 7 mps 669 mmHg 27%
    12:00 +30°C° 0 mm 7 mps 669 mmHg 27%
    13:00 +30°C° 0 mm 7 mps 669 mmHg 27%
    14:00 +30°C° 0 mm 7 mps 669 mmHg 27%
    15:00 +29°C° 0 mm 7 mps 669 mmHg 27%
    16:00 +28°C° 0 mm 6 mps 668 mmHg 31%
    17:00 +26°C° 0 mm 5 mps 668 mmHg 36%
    18:00 +25°C° 0 mm 5 mps 668 mmHg 40%
    19:00 +22°C° 0.1 mm 4 mps 668 mmHg 46%
    20:00 +21°C° 0.1 mm 3 mps 668 mmHg 52%
    21:00 +19°C° 0.1 mm 2 mps 668 mmHg 58%
    22:00 +20°C° 0.1 mm 1 mps 668 mmHg 61%
    23:00 +19°C° 0.1 mm 1 mps 668 mmHg 64%

    Day after tomorrow, 5 June, Friday

    Time Temperature Precipitation Wind Pressure Humidity
    00:00 +18°C° 0.1 mm 1 mps 668 mmHg 67%
    01:00 +18°C° 0 mm 1 mps 668 mmHg 70%
    02:00 +16°C° 0 mm 1 mps 667 mmHg 72%
    03:00 +16°C° 0 mm 1 mps 667 mmHg 75%
    04:00 +16°C° 0 mm 1 mps 667 mmHg 71%
    05:00 +18°C° 0 mm 1 mps 668 mmHg 67%
    06:00 +18°C° 0 mm 1 mps 668 mmHg 64%
    07:00 +19°C° 0 mm 3 mps 669 mmHg 56%
    08:00 +20°C° 0 mm 5 mps 670 mmHg 48%
    09:00 +21°C° 0 mm 7 mps 670 mmHg 39%
    10:00 +22°C° 0 mm 7 mps 671 mmHg 38%
    11:00 +23°C° 0 mm 7 mps 671 mmHg 37%
    12:00 +23°C° 0 mm 7 mps 671 mmHg 36%
    13:00 +23°C° 0 mm 6 mps 672 mmHg 35%
    14:00 +24°C° 0 mm 6 mps 672 mmHg 33%
    15:00 +24°C° 0 mm 6 mps 672 mmHg 32%
    16:00 +23°C° 0 mm 5 mps 672 mmHg 34%
    17:00 +22°C° 0 mm 4 mps 671 mmHg 37%
    18:00 +21°C° 0 mm 3 mps 671 mmHg 40%
    19:00 +20°C° 0 mm 2 mps 671 mmHg 44%
    20:00 +20°C° 0 mm 1 mps 672 mmHg 49%
    21:00 +17°C° 0 mm 0 mps 672 mmHg 54%
    22:00 +17°C° 0 mm 0 mps 672 mmHg 55%
    23:00 +17°C° 0 mm 0 mps 671 mmHg 55%

    6 June, Saturday

    Time Temperature Precipitation Wind Pressure Humidity
    00:00 +16°C° 0 mm 0 mps 671 mmHg 55%
    01:00 +18°C° 0 mm 1 mps 671 mmHg 56%
    02:00 +18°C° 0 mm 1 mps 671 mmHg 56%
    03:00 +18°C° 0 mm 1 mps 670 mmHg 56%
    04:00 +19°C° 0 mm 1 mps 671 mmHg 53%
    05:00 +20°C° 0 mm 1 mps 672 mmHg 50%
    06:00 +21°C° 0 mm 1 mps 672 mmHg 47%
    07:00 +23°C° 0 mm 2 mps 673 mmHg 42%
    08:00 +25°C° 0 mm 3 mps 673 mmHg 37%
    09:00 +26°C° 0 mm 3 mps 674 mmHg 31%
    10:00 +27°C° 0 mm 4 mps 674 mmHg 30%
    11:00 +28°C° 0 mm 5 mps 674 mmHg 29%
    12:00 +29°C° 0 mm 6 mps 673 mmHg 28%
    13:00 +29°C° 0 mm 7 mps 673 mmHg 29%
    14:00 +29°C° 0 mm 7 mps 673 mmHg 30%
    15:00 +29°C° 0 mm 7 mps 672 mmHg 31%
    16:00 +28°C° 0 mm 6 mps 672 mmHg 32%
    17:00 +28°C° 0 mm 5 mps 672 mmHg 34%
    18:00 +27°C° 0 mm 4 mps 672 mmHg 35%
    19:00 +26°C° 0 mm 3 mps 671 mmHg 39%
    20:00 +25°C° 0 mm 2 mps 671 mmHg 43%
    21:00 +22°C° 0 mm 0 mps 671 mmHg 47%
    22:00 +23°C° 0 mm 1 mps 671 mmHg 48%
    23:00 +23°C° 0 mm 1 mps 670 mmHg 49%

    7 June, Sunday

    Time Temperature Precipitation Wind Pressure Humidity
    00:00 +22°C° 0 mm 1 mps 670 mmHg 50%
    01:00 +22°C° 0 mm 1 mps 670 mmHg 50%
    02:00 +22°C° 0 mm 1 mps 670 mmHg 50%
    03:00 +21°C° 0 mm 1 mps 669 mmHg 50%
    04:00 +21°C° 0.1 mm 2 mps 670 mmHg 50%
    05:00 +21°C° 0.1 mm 2 mps 670 mmHg 50%
    06:00 +21°C° 0.1 mm 2 mps 671 mmHg 50%
    07:00 +23°C° 0 mm 2 mps 671 mmHg 46%
    08:00 +24°C° 0 mm 2 mps 672 mmHg 41%
    09:00 +25°C° 0 mm 2 mps 672 mmHg 37%
    10:00 +26°C° 0 mm 2 mps 673 mmHg 36%
    11:00 +27°C° 0 mm 1 mps 673 mmHg 34%
    12:00 +28°C° 0 mm 1 mps 673 mmHg 33%
    13:00 +28°C° 0 mm 2 mps 673 mmHg 34%
    14:00 +28°C° 0 mm 2 mps 673 mmHg 34%
    15:00 +28°C° 0 mm 3 mps 672 mmHg 35%
    16:00 +27°C° 0 mm 4 mps 672 mmHg 40%
    17:00 +25°C° 0 mm 4 mps 672 mmHg 45%
    18:00 +23°C° 0 mm 4 mps 672 mmHg 51%
    19:00 +22°C° 0 mm 4 mps 672 mmHg 53%
    20:00 +21°C° 0 mm 3 mps 672 mmHg 56%
    21:00 +20°C° 0 mm 2 mps 672 mmHg 58%
    22:00 +19°C° 0 mm 2 mps 672 mmHg 59%
    23:00 +20°C° 0 mm 1 mps 672 mmHg 59%

    8 June, Monday

    Time Temperature Precipitation Wind Pressure Humidity
    00:00 +20°C° 0 mm 1 mps 671 mmHg 60%
    01:00 +20°C° 0 mm 1 mps 671 mmHg 60%
    02:00 +19°C° 0 mm 1 mps 671 mmHg 61%
    03:00 +19°C° 0 mm 1 mps 670 mmHg 62%
    04:00 +20°C° 0 mm 1 mps 671 mmHg 59%
    05:00 +20°C° 0 mm 1 mps 671 mmHg 57%
    06:00 +21°C° 0 mm 1 mps 671 mmHg 54%
    07:00 +22°C° 0 mm 1 mps 672 mmHg 50%
    08:00 +23°C° 0 mm 1 mps 672 mmHg 47%
    09:00 +25°C° 0 mm 2 mps 673 mmHg 43%
    10:00 +26°C° 0 mm 2 mps 673 mmHg 40%
    11:00 +27°C° 0 mm 2 mps 673 mmHg 37%
    12:00 +28°C° 0 mm 2 mps 673 mmHg 34%
    13:00 +28°C° 0.1 mm 3 mps 673 mmHg 34%
    14:00 +28°C° 0.1 mm 4 mps 673 mmHg 35%
    15:00 +28°C° 0.1 mm 5 mps 672 mmHg 36%
    16:00 +27°C° 0.2 mm 5 mps 672 mmHg 42%
    17:00 +25°C° 0.2 mm 4 mps 672 mmHg 49%
    18:00 +22°C° 0.2 mm 4 mps 671 mmHg 56%
    19:00 +21°C° 0 mm 4 mps 671 mmHg 60%
    20:00 +19°C° 0 mm 3 mps 671 mmHg 64%
    21:00 +18°C° 0 mm 3 mps 671 mmHg 68%
    22:00 +18°C° 0.1 mm 2 mps 671 mmHg 69%
    23:00 +18°C° 0.1 mm 2 mps 671 mmHg 69%
    Show more